Date String (YYYY-MM-DD hh:mm:ss) UTC,Instrument flags,Ambient pressure (hPa),Sample flow (lpm),Bypass flow (lpm),Sample temperature (°C),Ambient temperature (°C),ASC tube jacket temperature (°C),LED temperature (°C),Box temperature (°C),Sample RH (%),Span deviation,Mass concentration (μg/m³),Mass concentration (μg/m³),Mass concentration (μg/m³)
DateTimeUTC,F1_M11,P_M11,Q1_M11,Q2_M11,T1_M11,T2_M11,T3_M11,T4_M11,T5_M11,U1_M11,ZSPAN_M11,X0_M11,X2_M11,X1_M11
2021-09-24 10:00:00,,0830.1,4.99,0.00,30.3,29.4,00.0,39.5,32.0,12.2,0002.4,0020.32,0011.35,0010.25
2021-09-24 10:01:00,,0830.1,5.01,0.00,30.3,29.4,00.0,39.5,32.1,12.2,0002.4,0020.64,0011.28,0010.21
2021-09-24 10:02:00,,0830.1,5.00,0.00,30.3,29.4,00.0,39.5,32.0,12.1,0002.4,0019.96,0011.25,0010.18
2021-09-24 10:03:00,,0830.1,4.99,0.00,30.3,29.5,00.0,39.5,32.0,12.0,0002.5,0019.39,0011.24,0010.17
2021-09-24 10:04:00,,0830.1,5.00,0.00,30.3,29.5,00.0,39.5,32.1,11.8,0002.7,0019.77,0011.25,0010.19
2021-09-24 10:05:00,,0830.1,5.02,0.00,30.3,29.4,00.0,39.5,32.1,11.8,0002.8,0019.27,0011.23,0010.19
2021-09-24 10:06:00,,0830.1,4.99,0.00,30.4,29.4,00.0,39.5,32.1,11.8,0002.9,0019.55,0011.24,0010.21
2021-09-24 10:07:00,,0830.1,5.00,0.00,30.4,29.5,00.0,39.5,32.1,11.8,0003.1,0019.78,0011.26,0010.25
2021-09-24 10:08:00,,0830.1,5.00,0.00,30.4,29.5,00.0,39.5,32.1,11.8,0002.9,0019.66,0011.31,0010.26
2021-09-24 10:09:00,,0830.1,5.00,0.00,30.4,29.4,00.0,39.5,32.1,11.8,0003.0,0019.62,0011.29,0010.29
2021-09-24 10:10:00,,0830.1,4.99,0.00,30.4,29.5,00.0,39.5,32.1,11.8,0003.2,0019.72,0011.28,0010.29
2021-09-24 10:11:00,,0830.1,5.00,0.00,30.4,29.5,00.0,39.5,32.1,11.8,0003.3,0019.68,0011.30,0010.31
2021-09-24 10:12:00,,0830.1,5.01,0.00,30.4,29.5,00.0,39.5,32.1,11.9,0003.2,0019.85,0011.26,0010.31
2021-09-24 10:13:00,,0830.1,5.01,0.00,30.4,29.5,00.0,39.5,32.1,11.9,0003.2,0019.77,0011.25,0010.32
2021-09-24 10:14:00,,0830.1,4.98,0.00,30.4,29.5,00.0,39.5,32.1,11.8,0003.2,0019.80,0011.20,0010.27
2021-09-24 10:15:00,,0830.1,5.01,0.00,30.4,29.5,00.0,39.5,32.1,11.8,0003.1,0019.04,0011.09,0010.20
2021-09-24 10:16:00,,0830.2,5.00,0.00,30.4,29.5,00.0,39.5,32.1,11.8,0002.9,0019.06,0011.06,0010.16
2021-09-24 10:17:00,,0830.1,4.99,0.00,30.4,29.5,00.0,39.5,32.1,11.8,0002.9,0018.71,0011.02,0010.10
2021-09-24 10:18:00,,0830.2,5.01,0.00,30.4,29.5,00.0,39.6,32.1,11.8,0002.9,0019.01,0011.01,0010.05
2021-09-24 10:19:00,,0830.1,4.99,0.00,30.4,29.5,00.0,39.6,32.1,11.8,0002.9,0018.94,0010.98,0010.03
2021-09-24 10:20:00,,0830.1,5.00,0.00,30.4,29.4,00.0,39.6,32.1,11.8,0003.0,0019.25,0010.95,0009.99
2021-09-24 10:21:00,,0830.1,5.00,0.00,30.4,29.4,00.0,39.6,32.1,11.7,0002.7,0019.07,0010.94,0010.00
2021-09-24 10:22:00,,0830.1,4.99,0.00,30.4,29.4,00.0,39.5,32.1,11.7,0002.6,0019.21,0010.94,0010.00
2021-09-24 10:23:00,,0830.1,5.00,0.00,30.4,29.4,00.0,39.5,32.1,11.7,0002.3,0019.40,0010.97,0010.03
2021-09-24 10:24:00,,0830.1,5.01,0.00,30.4,29.4,00.0,39.5,32.1,11.7,0002.2,0019.90,0011.04,0010.07
2021-09-24 10:25:00,,0830.1,5.00,0.00,30.4,29.4,00.0,39.5,32.1,11.7,0002.1,0019.92,0011.10,0010.13
2021-09-24 10:26:00,,0830.1,4.99,0.00,30.4,29.3,00.0,39.5,32.1,11.6,0002.3,0020.05,0011.19,0010.19
2021-09-24 10:27:00,,0830.1,5.01,0.00,30.4,29.3,00.0,39.5,32.1,11.5,0002.2,0019.78,0011.22,0010.21
2021-09-24 10:28:00,,0830.1,5.00,0.00,30.4,29.3,00.0,39.5,32.1,11.6,0002.0,0019.77,0011.23,0010.24
2021-09-24 10:29:00,,0830.1,5.00,0.00,30.4,29.3,00.0,39.5,32.0,11.5,0002.1,0019.24,0011.29,0010.33
2021-09-24 10:30:00,,0830.1,4.99,0.00,30.4,29.3,00.0,39.5,32.0,11.5,0002.1,0018.95,0011.42,0010.47
2021-09-24 10:31:00,,0830.1,5.00,0.00,30.3,29.3,00.0,39.5,32.0,11.5,0001.8,0018.87,0011.59,0010.64
2021-09-24 10:32:00,,0830.1,5.00,0.00,30.3,29.3,00.0,39.5,32.0,11.5,0001.8,0018.87,0011.79,0010.82
2021-09-24 10:33:00,,0830.2,4.99,0.00,30.3,29.3,00.0,39.5,32.0,11.5,0001.8,0019.39,0011.93,0010.96
2021-09-24 10:34:00,,0830.2,5.01,0.00,30.3,29.3,00.0,39.5,32.0,11.5,0002.0,0018.74,0012.02,0011.07
2021-09-24 10:35:00,,0830.2,5.00,0.00,30.3,29.3,00.0,39.5,32.0,11.5,0002.1,0018.57,0012.16,0011.19
2021-09-24 10:36:00,,0830.2,4.97,0.00,30.4,29.3,00.0,39.5,32.0,11.5,0002.0,0018.88,0012.32,0011.33
2021-09-24 10:37:00,,0830.2,5.01,0.00,30.3,29.3,00.0,39.5,32.0,11.5,0001.8,0018.94,0012.48,0011.48
2021-09-24 10:38:00,,0830.2,4.99,0.00,30.3,29.3,00.0,39.5,32.0,11.5,0001.9,0019.44,0012.63,0011.63
2021-09-24 10:39:00,,0830.3,5.00,0.00,30.3,29.3,00.0,39.5,32.0,11.5,0002.0,0020.35,0012.78,0011.78
2021-09-24 10:40:00,,0830.2,5.02,0.00,30.3,29.3,00.0,39.5,32.0,11.4,0002.1,0021.35,0012.85,0011.86
2021-09-24 10:41:00,,0830.2,5.00,0.00,30.3,29.3,00.0,39.5,32.0,11.5,0002.2,0021.48,0012.84,0011.88
2021-09-24 10:42:00,,0830.2,5.00,0.00,30.3,29.3,00.0,39.5,32.0,11.4,0002.3,0021.07,0012.76,0011.84
2021-09-24 10:43:00,,0830.2,5.01,0.00,30.4,29.3,00.0,39.5,32.0,11.5,0002.3,0020.77,0012.59,0011.74
2021-09-24 10:44:00,,0830.3,4.99,0.00,30.3,29.3,00.0,39.5,32.0,11.5,0002.4,0019.99,0012.54,0011.71
2021-09-24 10:45:00,,0830.3,5.01,0.00,30.4,29.3,00.0,39.5,32.1,11.5,0002.3,0019.94,0012.49,0011.66
2021-09-24 10:46:00,,0830.4,5.00,0.00,30.3,29.3,00.0,39.5,32.0,11.5,0002.2,0019.63,0012.36,0011.56
2021-09-24 10:47:00,,0830.3,4.99,0.00,30.4,29.3,00.0,39.5,32.0,11.5,0002.3,0019.24,0012.25,0011.46
2021-09-24 10:48:00,,0830.3,5.00,0.00,30.3,29.3,00.0,39.5,32.0,11.5,0002.4,0018.79,0012.10,0011.35
2021-09-24 10:49:00,,0830.3,5.01,0.00,30.3,29.3,00.0,39.5,32.0,11.6,0002.6,0018.68,0011.98,0011.25
2021-09-24 10:50:00,,0830.3,4.99,0.00,30.3,29.3,00.0,39.5,32.0,11.5,0002.5,0018.40,0011.85,0011.12
2021-09-24 10:51:00,,0830.3,5.01,0.00,30.3,29.3,00.0,39.5,32.0,11.5,0002.3,0018.27,0011.76,0011.01
2021-09-24 10:52:00,,0830.3,5.00,0.00,30.3,29.3,00.0,39.5,32.0,11.5,0002.2,0018.47,0011.62,0010.86
2021-09-24 10:53:00,,0830.4,4.99,0.00,30.3,29.3,00.0,39.5,32.0,11.5,0002.1,0018.55,0011.52,0010.74
2021-09-24 10:54:00,,0830.4,5.01,0.00,30.3,29.3,00.0,39.5,32.0,11.5,0002.2,0018.62,0011.39,0010.60
2021-09-24 10:55:00,,0830.4,5.01,0.00,30.3,29.3,00.0,39.5,32.0,11.5,0002.1,0018.63,0011.27,0010.46
2021-09-24 10:56:00,,0830.4,4.99,0.00,30.3,29.3,00.0,39.5,32.0,11.5,0002.1,0018.60,0011.20,0010.37
2021-09-24 10:57:00,,0830.3,5.00,0.00,30.3,29.3,00.0,39.5,32.0,11.5,0002.1,0018.79,0011.19,0010.30
2021-09-24 10:58:00,,0830.4,5.00,0.00,30.3,29.3,00.0,39.5,32.0,11.5,0002.1,0018.77,0011.06,0010.21
2021-09-24 10:59:00,,0830.3,5.00,0.00,30.3,29.3,00.0,39.5,32.0,11.4,0002.1,0019.06,0010.98,0010.11
